TimeCAT,TemperatureF,Dew PointF,Humidity,Sea Level PressureIn,VisibilityMPH,Wind Direction,Wind SpeedMPH,Gust SpeedMPH,PrecipitationIn,Events,Conditions,WindDirDegrees,DateUTC
4:00 AM,66.2,60.8,83,30.01,6.2,NNE,9.2,-,N/A,,Partly Cloudy,30,2012-11-23 02:00:00
5:00 AM,68.0,60.8,78,30.04,6.2,NE,9.2,-,N/A,,Scattered Clouds,50,2012-11-23 03:00:00
6:00 AM,68.0,62.6,83,30.06,-9999.0,ENE,9.2,-,N/A,,Clear,60,2012-11-23 04:00:00
7:00 AM,69.8,60.8,73,30.09,6.2,NE,9.2,-,N/A,,Mostly Cloudy,40,2012-11-23 05:00:00
8:00 AM,71,61,63,,6,NE,10.4,,,,Partly Cloudy,50,2012-11-23 06:00:00
8:00 AM,71.6,60.8,69,30.12,6.2,NE,10.4,-,N/A,,Scattered Clouds,50,2012-11-23 06:00:00
9:00 AM,75.2,60.8,61,30.09,6.2,NE,11.5,-,N/A,,Scattered Clouds,40,2012-11-23 07:00:00
10:00 AM,77.0,62.6,61,30.09,6.2,NE,9.2,-,N/A,,Scattered Clouds,40,2012-11-23 08:00:00
11:00 AM,78.8,60.8,54,30.06,6.2,NNE,9.2,-,N/A,,Mostly Cloudy,30,2012-11-23 09:00:00
12:00 PM,82.4,60.8,48,30.06,6.2,North,11.5,-,N/A,,Mostly Cloudy,360,2012-11-23 10:00:00
1:00 PM,84.2,59.0,42,30.01,6.2,North,8.1,-,N/A,,Mostly Cloudy,350,2012-11-23 11:00:00
2:00 PM,86,57,28,,6,NNW,8.1,,,,Partly Cloudy,340,2012-11-23 12:00:00
2:00 PM,86.0,57.2,37,29.98,6.2,NNW,8.1,-,N/A,,Partly Cloudy,340,2012-11-23 12:00:00
3:00 PM,87.8,57.2,35,29.95,6.2,Variable,5.8,-,N/A,,Partly Cloudy,0,2012-11-23 13:00:00
4:00 PM,87.8,55.4,33,29.89,6.2,North,9.2,-,N/A,,Partly Cloudy,10,2012-11-23 14:00:00
5:00 PM,84.2,55.4,37,29.89,6.2,NNE,5.8,-,N/A,Thunderstorm,Thunderstorm,30,2012-11-23 15:00:00
6:00 PM,80.6,55.4,42,29.92,6.2,NNE,9.2,-,N/A,Thunderstorm,Thunderstorm,30,2012-11-23 16:00:00
7:00 PM,75.2,62.6,65,29.95,6.2,WSW,8.1,-,N/A,Rain-Thunderstorm,Light Thunderstorms and Rain,250,2012-11-23 17:00:00
8:00 PM,69,64,80,,6,NW,11.5,,,Rain-Thunderstorm,Thunderstorms and Rain,310,2012-11-23 18:00:00
8:00 PM,68.0,64.4,88,30.01,6.2,NW,11.5,-,N/A,Rain-Thunderstorm,Thunderstorms and Rain,310,2012-11-23 18:00:00
9:00 PM,68.0,62.6,83,30.01,6.2,WNW,12.7,-,N/A,Rain-Thunderstorm,Thunderstorms and Rain,290,2012-11-23 19:00:00
10:00 PM,66.2,62.6,88,30.04,6.2,WNW,12.7,-,N/A,Rain-Thunderstorm,Thunderstorms and Rain,290,2012-11-23 20:00:00
11:00 PM,64.4,62.6,94,30.06,5.6,NW,10.4,-,N/A,Rain,Light Rain,310,2012-11-23 21:00:00